Location: Newark
(52.2323°N, 21.0084°E)
Time: 07:47:02
(UTC+00:00)

Envisat - Visible Passes

Search period start: 12 November 2019 00:00
Search period end: 22 November 2019 00:00
Orbit: 764 x 766 km, 98.1° (Epoch: 12 November)

Date Brightness Start Highest point End Pass type
(mag) Time Alt. Az. Time Alt. Az. Time Alt. Az.
12 Nov 3.3 16:39:02 10° S 16:44:06 69° WSW 16:49:11 10° NNW visible
12 Nov 6.2 18:22:30 10° WSW 18:24:06 11° W 18:25:43 10° WNW visible
13 Nov 5.3 04:42:24 10° NNE 04:46:46 28° E 04:51:07 10° SSE visible
13 Nov 3.0 16:02:19 10° SSE 16:07:20 63° ENE 16:12:23 10° N visible
13 Nov 5.4 17:42:51 10° SW 17:46:48 23° W 17:50:47 10° NW visible
14 Nov 6.1 04:06:45 10° NE 04:09:33 15° E 04:12:20 10° ESE visible
14 Nov 3.6 15:26:13 10° SE 15:30:45 34° ENE 15:35:19 10° N visible
14 Nov 4.2 17:04:53 10° S 17:09:42 43° W 17:14:34 10° NNW visible
15 Nov 4.4 05:07:35 10° NNE 05:12:28 44° E 05:17:19 10° S visible
15 Nov 3.0 16:27:43 10° SSE 16:32:49 83° WSW 16:37:56 10° NNW visible
15 Nov 6.0 18:10:01 10° WSW 18:12:39 14° W 18:15:20 10° NW visible
16 Nov 5.6 04:31:20 10° NE 04:35:23 23° E 04:39:24 10° SE visible
16 Nov 3.1 15:51:11 10° SE 15:56:06 52° ENE 16:01:03 10° N visible
16 Nov 5.1 17:31:07 10° SSW 17:35:25 27° W 17:39:44 10° NW visible
17 Nov 6.3 03:56:14 10° ENE 03:58:05 12° E 03:59:56 10° ESE visible
17 Nov 3.8 15:15:15 10° ESE 15:19:34 29° ENE 15:23:55 10° N visible
17 Nov 3.8 16:53:26 10° S 16:58:22 52° W 17:03:22 10° NNW visible
18 Nov 4.8 04:56:25 10° NNE 05:01:07 36° E 05:05:48 10° SSE visible
18 Nov 2.9 16:16:27 10° SSE 16:21:32 82° ENE 16:26:39 10° NNW visible
18 Nov 5.7 17:57:54 10° SW 18:01:13 17° W 18:04:33 10° NW visible
19 Nov 5.9 04:20:21 10° NE 04:23:58 19° E 04:27:35 10° SE visible
19 Nov 3.3 15:40:05 10° SE 15:44:53 44° ENE 15:49:42 10° N visible
19 Nov 4.7 17:19:29 10° SSW 17:24:02 33° W 17:28:38 10° NNW visible
20 Nov 3.8 05:21:43 10° NNE 05:26:46 58° E 05:31:46 10° S visible
20 Nov 3.4 16:42:01 10° S 16:47:04 64° W 16:52:08 10° NNW visible
20 Nov 6.2 18:26:17 10° W 18:27:08 10° W 18:27:59 10° WNW visible
21 Nov 5.1 04:45:17 10° NNE 04:49:46 30° E 04:54:13 10° SSE visible
21 Nov 2.9 16:05:14 10° SSE 16:10:17 68° ENE 16:15:21 10° N visible
21 Nov 5.5 17:46:00 10° SW 17:49:48 21° W 17:53:38 10° NW visible
